Flag for Jordan Weather past 2 weeks in Amman, Jordan

Now
63 °F

Haze.


Feels Like: 63 °F
Forecast: 60 / 82 °F
Wind: 3 mph from Northwest

Location: Amman Airport

Current Time: Apr 27, 2015 at 1:04:47 AM

Latest Report: Apr 27, 2015 at 12:00 AM


Visibility: 3 mi

Pressure: 30.04 "Hg

Humidity: 30%

Dew point: 30 °F

Location of AmmanLocation

Historic Weather in Amman — Graph

°F

Amman temperature yesterday

Maximum temperature yesterday: 82 °F (at 4:00 PM)
Minimum temperature yesterday: 54 °F (at 5:00 AM)
Average temperature yesterday: 68 °F

Past Weeks' High & Low Weather Summary

 TemperatureHumidityPressure
High82 °F (Apr 26, 4:00 PM)93% (Apr 12, 4:00 AM)30.30 "Hg (Apr 12, 4:00 AM)
Low41 °F (Apr 12, 12:00 PM)10% (Apr 26, 2:00 PM)29.83 "Hg (Apr 15, 4:00 PM)
Average58 °F50%30.07 "Hg
* Reported Apr 11 11:00 PM — Apr 26 11:00 PM, Amman, Weather by CustomWeather, © 2015

Note: Actual official high and low records may vary slightly from our data, if they occured in-between our weather recording intervals... More about our weather records

Advertising

Amman weather history for previous 24 hours

 ConditionsComfort  
Time TempWeatherWind HumidityBarometerVisibility
11:00 PM
Sun, Apr 26
66 °FHaze.No wind26%30.04 "Hg3 mi
10:00 PM68 °FHaze.No wind24%30.04 "Hg3 mi
9:00 PM70 °FHaze.3 mph20%30.04 "Hg3 mi
8:00 PM73 °FHaze.5 mph16%29.98 "Hg3 mi
7:00 PM75 °FHaze.13 mph18%30.01 "Hg3 mi
6:00 PM81 °FHaze.13 mph15%29.98 "Hg3 mi
5:00 PM81 °FHaze.5 mph15%29.98 "Hg3 mi
4:00 PM82 °FHaze.8 mph13%29.98 "Hg3 mi
3:00 PM81 °FHaze.6 mph13%30.01 "Hg3 mi
2:00 PM79 °FHaze.6 mph10%30.04 "Hg3 mi
1:00 PM79 °FHaze.8 mph11%30.07 "Hg3 mi
12:00 PM75 °FHaze.5 mph12%30.09 "Hg3 mi
11:00 AM72 °FHaze.9 mph14%30.09 "Hg3 mi
10:00 AM66 °FHaze.13 mph17%30.12 "Hg3 mi
9:00 AM63 °FHaze.6 mph20%30.12 "Hg3 mi
8:00 AM59 °FHaze.5 mph25%30.12 "Hg3 mi
7:00 AM57 °FHaze.6 mph23%30.09 "Hg3 mi
6:00 AM55 °FHaze.6 mph23%30.09 "Hg3 mi
5:00 AM54 °FClear.No wind24%30.12 "Hg4 mi
4:00 AM55 °FClear.No wind24%30.09 "Hg4 mi
3:00 AM55 °FClear.No wind24%30.09 "Hg4 mi
2:00 AM59 °FClear.3 mph20%30.09 "Hg4 mi
1:00 AM59 °FClear.No wind18%30.12 "Hg4 mi
Weather by CustomWeather, © 2015

See weather overviewHow to use our weather pages